• Em Portugal
  • Lista de países
  • Para 7 dias
  • Temperatura da água
  • Mapas de satélite
  • Mapa do tempo
  • Widgets de tempo
  • user-avatar
    Iniciar Sessão

    Previsão horária em Georgetown

    Hoje, 11 Dezembro, Segunda-feira

    Tempo Temperatura Precipitação Vento Pressão Humidade
    00:00 +23°C° 0 mm 6 m/s 735 mmHg 23%
    01:00 +22°C° 0 mm 6 m/s 735 mmHg 24%
    02:00 +22°C° 0 mm 6 m/s 735 mmHg 24%
    03:00 +22°C° 0 mm 6 m/s 735 mmHg 24%
    04:00 +22°C° 0 mm 6 m/s 735 mmHg 24%
    05:00 +22°C° 0 mm 6 m/s 735 mmHg 25%
    06:00 +21°C° 0 mm 7 m/s 735 mmHg 26%
    07:00 +21°C° 0 mm 7 m/s 735 mmHg 26%
    08:00 +23°C° 0 mm 6 m/s 735 mmHg 24%
    09:00 +26°C° 0 mm 6 m/s 736 mmHg 23%
    10:00 +28°C° 0 mm 6 m/s 736 mmHg 21%
    11:00 +29°C° 0 mm 5 m/s 736 mmHg 23%
    12:00 +32°C° 0 mm 4 m/s 735 mmHg 24%
    13:00 +33°C° 0 mm 3 m/s 735 mmHg 26%
    14:00 +33°C° 0 mm 3 m/s 734 mmHg 26%
    15:00 +33°C° 0 mm 3 m/s 734 mmHg 26%
    16:00 +34°C° 0 mm 3 m/s 733 mmHg 25%
    17:00 +32°C° 0 mm 4 m/s 733 mmHg 26%
    18:00 +30°C° 0 mm 4 m/s 734 mmHg 26%
    19:00 +28°C° 0 mm 4 m/s 734 mmHg 27%
    20:00 +28°C° 0 mm 4 m/s 734 mmHg 26%
    21:00 +27°C° 0 mm 5 m/s 735 mmHg 26%
    22:00 +27°C° 0 mm 5 m/s 735 mmHg 25%
    23:00 +27°C° 0 mm 5 m/s 735 mmHg 26%

    Amanhã, 12 Dezembro, Terça-feira

    Tempo Temperatura Precipitação Vento Pressão Humidade
    00:00 +26°C° 0 mm 5 m/s 735 mmHg 27%
    01:00 +26°C° 0 mm 5 m/s 735 mmHg 27%
    02:00 +26°C° 0 mm 6 m/s 735 mmHg 27%
    03:00 +24°C° 0 mm 6 m/s 734 mmHg 27%
    04:00 +24°C° 0 mm 6 m/s 734 mmHg 27%
    05:00 +24°C° 0 mm 6 m/s 735 mmHg 27%
    06:00 +24°C° 0 mm 6 m/s 735 mmHg 27%
    07:00 +24°C° 0 mm 6 m/s 735 mmHg 26%
    08:00 +27°C° 0 mm 6 m/s 735 mmHg 25%
    09:00 +29°C° 0 mm 6 m/s 736 mmHg 24%
    10:00 +32°C° 0 mm 6 m/s 736 mmHg 23%
    11:00 +33°C° 0 mm 5 m/s 735 mmHg 22%
    12:00 +35°C° 0 mm 4 m/s 735 mmHg 22%
    13:00 +36°C° 0 mm 4 m/s 734 mmHg 22%
    14:00 +36°C° 0 mm 3 m/s 734 mmHg 23%
    15:00 +36°C° 0 mm 3 m/s 733 mmHg 24%
    16:00 +36°C° 0 mm 3 m/s 733 mmHg 24%
    17:00 +35°C° 0 mm 4 m/s 733 mmHg 25%
    18:00 +33°C° 0 mm 4 m/s 734 mmHg 25%
    19:00 +32°C° 0 mm 5 m/s 734 mmHg 25%
    20:00 +30°C° 0 mm 5 m/s 735 mmHg 26%
    21:00 +29°C° 0 mm 6 m/s 735 mmHg 27%
    22:00 +29°C° 0 mm 7 m/s 735 mmHg 28%
    23:00 +28°C° 0 mm 7 m/s 735 mmHg 28%

    Depois de amanhã, 13 Dezembro, Quarta-feira

    Tempo Temperatura Precipitação Vento Pressão Humidade
    00:00 +28°C° 0 mm 7 m/s 735 mmHg 29%
    01:00 +27°C° 0 mm 7 m/s 735 mmHg 30%
    02:00 +27°C° 0 mm 8 m/s 735 mmHg 30%
    03:00 +26°C° 0 mm 8 m/s 734 mmHg 31%
    04:00 +26°C° 0 mm 8 m/s 734 mmHg 31%
    05:00 +26°C° 0 mm 8 m/s 735 mmHg 31%
    06:00 +26°C° 0 mm 8 m/s 735 mmHg 32%
    07:00 +26°C° 0 mm 8 m/s 735 mmHg 32%
    08:00 +28°C° 0 mm 8 m/s 736 mmHg 29%
    09:00 +31°C° 0 mm 8 m/s 736 mmHg 27%
    10:00 +33°C° 0 mm 8 m/s 736 mmHg 24%
    11:00 +34°C° 0 mm 7 m/s 736 mmHg 23%
    12:00 +36°C° 0 mm 6 m/s 735 mmHg 22%
    13:00 +38°C° 0 mm 6 m/s 734 mmHg 21%
    14:00 +37°C° 0 mm 5 m/s 734 mmHg 21%
    15:00 +37°C° 0 mm 5 m/s 733 mmHg 21%
    16:00 +37°C° 0 mm 5 m/s 733 mmHg 21%
    17:00 +35°C° 0 mm 5 m/s 733 mmHg 22%
    18:00 +34°C° 0 mm 6 m/s 733 mmHg 23%
    19:00 +32°C° 0 mm 6 m/s 734 mmHg 24%
    20:00 +30°C° 0 mm 7 m/s 734 mmHg 25%
    21:00 +29°C° 0 mm 7 m/s 735 mmHg 26%
    22:00 +29°C° 0 mm 7 m/s 735 mmHg 26%
    23:00 +28°C° 0 mm 7 m/s 735 mmHg 27%

    14 Dezembro, Quinta-feira

    Tempo Temperatura Precipitação Vento Pressão Humidade
    00:00 +28°C° 0 mm 7 m/s 735 mmHg 27%
    01:00 +27°C° 0 mm 8 m/s 734 mmHg 28%
    02:00 +27°C° 0 mm 8 m/s 734 mmHg 27%
    03:00 +27°C° 0 mm 8 m/s 734 mmHg 27%
    04:00 +26°C° 0 mm 8 m/s 734 mmHg 27%
    05:00 +26°C° 0 mm 9 m/s 734 mmHg 27%
    06:00 +27°C° 0 mm 9 m/s 735 mmHg 26%
    07:00 +27°C° 0 mm 10 m/s 735 mmHg 26%
    08:00 +29°C° 0 mm 10 m/s 735 mmHg 24%
    09:00 +32°C° 0 mm 10 m/s 736 mmHg 21%
    10:00 +34°C° 0 mm 10 m/s 736 mmHg 19%
    11:00 +36°C° 0 mm 10 m/s 735 mmHg 18%
    12:00 +37°C° 0 mm 9 m/s 734 mmHg 17%
    13:00 +38°C° 0 mm 9 m/s 734 mmHg 17%
    14:00 +38°C° 0 mm 8 m/s 733 mmHg 17%
    15:00 +38°C° 0 mm 8 m/s 733 mmHg 17%
    16:00 +38°C° 0 mm 8 m/s 732 mmHg 17%
    17:00 +35°C° 0 mm 7 m/s 733 mmHg 18%
    18:00 +33°C° 0 mm 7 m/s 733 mmHg 19%
    19:00 +30°C° 0 mm 7 m/s 734 mmHg 20%
    20:00 +30°C° 0 mm 7 m/s 734 mmHg 21%
    21:00 +29°C° 0 mm 8 m/s 734 mmHg 21%
    22:00 +28°C° 0 mm 8 m/s 735 mmHg 22%
    23:00 +28°C° 0 mm 8 m/s 735 mmHg 23%

    15 Dezembro, Sexta-feira

    Tempo Temperatura Precipitação Vento Pressão Humidade
    00:00 +27°C° 0 mm 8 m/s 734 mmHg 24%
    01:00 +27°C° 0 mm 8 m/s 734 mmHg 25%
    02:00 +26°C° 0 mm 8 m/s 734 mmHg 25%
    03:00 +26°C° 0 mm 9 m/s 734 mmHg 25%
    04:00 +24°C° 0 mm 9 m/s 734 mmHg 25%
    05:00 +24°C° 0 mm 9 m/s 734 mmHg 25%
    06:00 +24°C° 0 mm 10 m/s 735 mmHg 25%
    07:00 +24°C° 0 mm 10 m/s 735 mmHg 25%
    08:00 +26°C° 0 mm 10 m/s 735 mmHg 24%
    09:00 +28°C° 0 mm 10 m/s 735 mmHg 23%
    10:00 +31°C° 0 mm 9 m/s 736 mmHg 22%
    11:00 +32°C° 0 mm 8 m/s 735 mmHg 21%
    12:00 +33°C° 0 mm 7 m/s 734 mmHg 20%
    13:00 +34°C° 0 mm 6 m/s 734 mmHg 19%
    14:00 +34°C° 0 mm 6 m/s 733 mmHg 19%
    15:00 +34°C° 0 mm 6 m/s 733 mmHg 18%
    16:00 +34°C° 0 mm 5 m/s 733 mmHg 18%
    17:00 +32°C° 0 mm 5 m/s 733 mmHg 19%
    18:00 +30°C° 0 mm 6 m/s 733 mmHg 20%
    19:00 +28°C° 0 mm 6 m/s 734 mmHg 22%
    20:00 +27°C° 0 mm 6 m/s 734 mmHg 22%
    21:00 +26°C° 0 mm 7 m/s 734 mmHg 22%
    22:00 +24°C° 0 mm 7 m/s 735 mmHg 23%
    23:00 +24°C° 0 mm 7 m/s 735 mmHg 23%

    16 Dezembro, Sábado

    Tempo Temperatura Precipitação Vento Pressão Humidade
    00:00 +23°C° 0 mm 8 m/s 734 mmHg 23%
    01:00 +23°C° 0 mm 8 m/s 734 mmHg 23%
    02:00 +23°C° 0 mm 8 m/s 734 mmHg 24%
    03:00 +22°C° 0 mm 9 m/s 734 mmHg 25%
    04:00 +22°C° 0 mm 9 m/s 734 mmHg 26%
    05:00 +21°C° 0 mm 9 m/s 734 mmHg 27%
    06:00 +21°C° 0 mm 9 m/s 735 mmHg 28%
    07:00 +21°C° 0 mm 9 m/s 735 mmHg 28%
    08:00 +23°C° 0 mm 9 m/s 735 mmHg 27%
    09:00 +26°C° 0 mm 8 m/s 735 mmHg 25%
    10:00 +28°C° 0 mm 8 m/s 735 mmHg 23%
    11:00 +30°C° 0 mm 7 m/s 735 mmHg 21%
    12:00 +32°C° 0 mm 6 m/s 734 mmHg 20%
    13:00 +33°C° 0 mm 5 m/s 733 mmHg 19%
    14:00 +34°C° 0 mm 4 m/s 733 mmHg 20%
    15:00 +34°C° 0 mm 3 m/s 733 mmHg 21%
    16:00 +34°C° 0 mm 3 m/s 732 mmHg 22%
    17:00 +31°C° 0 mm 3 m/s 733 mmHg 22%
    18:00 +29°C° 0 mm 4 m/s 733 mmHg 22%
    19:00 +28°C° 0 mm 4 m/s 733 mmHg 21%
    20:00 +27°C° 0 mm 5 m/s 734 mmHg 22%
    21:00 +26°C° 0 mm 6 m/s 734 mmHg 23%
    22:00 +24°C° 0 mm 7 m/s 734 mmHg 23%
    23:00 +24°C° 0 mm 7 m/s 734 mmHg 23%
    Mostrar mais